Regional Weather Roundup
Issued by NWS

Home | Current Version | Previous Version | Text Only | Print | Product List | Glossary On
Versions: 1 2 3 4 5 6 7 8 9 10 11 12 13 14 15 16 17 18 19 20 21 22 23 24 25 26 27 28 29 30 31 32 33 34 35 36 37 38 39 40 41 42 43 44 45 46 47 48 49 50
000
ASUS43 KLSX 212207
RWRMO

WEATHER SUMMARY FOR MISSOURI
NATIONAL WEATHER SERVICE SPRINGFIELD MO
400 PM CST SUN JAN 21 2018

NOTE: "FAIR" INDICATES FEW OR NO CLOUDS BELOW 12,000 FEET WITH NO
       SIGNIFICANT WEATHER AND/OR OBSTRUCTIONS TO VISIBILITY.
       CURRENT SKY AND/OR WEATHER CONDITIONS ARE NOT AVAILABLE FOR
       CHILLICOTHE AND FARMINGTON.

MOZ001>031-035>038-043-044-053-054-212300-
...NORTHERN AND WESTERN MISSOURI...

CITY           SKY/WX    TMP DP  RH WIND       PRES   REMARKS
KANSAS CTY INT CLOUDY    62  50  64 S8        29.68S
KANSAS C DTWN  CLOUDY    65  50  58 S9        29.67F
LEE`S SUMMIT   CLOUDY    66  52  60 SW15      29.69S
ST JOSEPH      CLOUDY    60  51  72 SE8       29.67F
CHILLICOTHE      N/A     57  51  80 SE6       29.73S
KIRKSVILLE     CLOUDY    55  52  89 E6        29.75S

$$
MOZ066>068-077>081-088>096-101>105-212300-
...SOUTHWEST MISSOURI...

CITY           SKY/WX    TMP DP  RH WIND       PRES   REMARKS
SPRINGFIELD    MOSUNNY   69  54  58 S18G30    29.75S
JOPLIN         LGT RAIN  64  58  80 S10G28    29.70F
BRANSON        PTSUNNY   66  54  63 S12G20    29.80F

$$
MOZ032>034-039>042-045>050-055>058-069>072-212300-
...CENTRAL MISSOURI...

CITY           SKY/WX    TMP DP  RH WIND       PRES   REMARKS
COLUMBIA       CLOUDY    69  52  54 S13       29.74S
JEFFERSON CITY MOSUNNY   70  52  52 S13G20    29.74S
ROLLA          PTSUNNY   65  55  70 S18G30    29.79S
SEDALIA        CLOUDY    69  52  54 SW10      29.73S
WHITEMAN AFB   PTSUNNY   66  51  57 SW12      29.67S
WARRENSBURG    CLOUDY    64  50  59 S9        29.70F
OSAGE BEACH    CLOUDY    69  54  58 S14G25    29.76R

$$
MOZ051-052-059>065-212300-
...EAST CENTRAL MISSOURI...

CITY           SKY/WX    TMP DP  RH WIND       PRES   REMARKS
ST LOUIS INTL  PTSUNNY   65  54  67 S14G28    29.82S
SPIRIT OF STL  CLOUDY    66  55  67 S13G23    29.80F
ST CHARLES     MOSUNNY   67  53  61 S16       29.80S

$$
MOZ072>076-082>087-097>100-106>115-212300-
...SOUTH CENTRAL AND SOUTHEAST MISSOURI...

CITY           SKY/WX    TMP DP  RH WIND       PRES   REMARKS
CAPE GIRARDEAU CLOUDY    58  53  84 S16G25    29.94S
FARMINGTON     CLOUDY    55  54  94 S12       29.89S
POPLAR BLUFF   CLOUDY    57  54  89 S6        29.93S
WEST PLAINS    CLOUDY    61  56  83 S15G23    29.85F

$$


USA.gov is the U.S. government's official web portal to all federal, state and local government web resources and services.